Regional Weather Roundup
Issued by NWS

Home | Current Version | Previous Version | Text Only | Print | Product List | Glossary On
Versions: 1 2 3 4 5 6 7 8 9 10 11 12 13 14 15 16 17 18 19 20 21 22 23 24 25 26 27 28 29 30 31 32 33 34 35 36 37 38 39 40 41 42 43 44 45 46 47 48 49 50
000
ASUS44 KEWX 232311
RWRTX
SOUTH TEXAS REGIONAL WEATHER ROUNDUP
NATIONAL WEATHER SERVICE AUSTIN/SAN ANTONIO TX
600 PM CDT TUE MAY 23 2017

NOTE: "FAIR" INDICATED FEW OR NO CLOUDS BELOW 12,000 FEET WITH NO
SIGNIFICANT WEATHER AND/OR OBSTRUCTIONS TO VISIBILITY.

* - THESE STATIONS ARE NOT NWS OR FAA STATIONS...AND ARE NOT SUBJECT
    TO NWS AND FAA QUALITY CONTROL.

TXZ171-172-183>190-240000-
TEXAS HILL COUNTRY AND EDWARDS PLATEAU

CITY           SKY/WX    TMP DP  RH WIND       PRES   REMARKS
JUNCTION       PTSUNNY   68  53  58 N22G30    29.99S
*LLANO         CLOUDY    64  54  68 N17G24    29.99R
BURNET         CLOUDY    64  58  80 NW14      29.96R
*HORSESHOE BAY NOT AVBL
*KERRVILLE     CLOUDY    66  56  70 N21G32    29.95R
*FREDERICKSBRG CLOUDY    62  54  73 N13G18    29.96R
*ROCKSPRINGS   CLOUDY    66  54  63 N12G25    30.00S
*BOERNE STAGE  CLOUDY    70  55  60 N17G32    29.91R
*CASTROVILLE   CLOUDY    72  70  95 CALM      29.86R
HONDO          PTSUNNY   73  68  84 SW9       29.86R
*UVALDE        MOSUNNY   75  66  73 CALM      29.86S
DEL RIO        CLOUDY    76  59  55 N17G28    29.91R
LAUGHLIN AFB   PTSUNNY   76  64  65 N20G26    29.91R
CARRIZO SPRGS  MOSUNNY   82  70  65 N5        29.81S
*EAGLE PASS    NOT AVBL
$$

TXZ173-191>194-202-209-217>225-228-240000-
CENTRAL AND SOUTH CENTRAL TEXAS

CITY           SKY/WX    TMP DP  RH WIND       PRES   REMARKS
GEORGETOWN     TSTM      70  57  64 NW22G33   29.89R
AUSTIN/BERGSTM TSTM      70  59  68 NW21G36   29.90R
AUSTIN/MABRY   TSTM      65  61  87 N8G20     29.90R FOG
*AUSTIN/EXEC   CLOUDY    63  63 100 NW15G24   29.90R
*LAGO VISTA    RAIN      63  61  93 N13G21    29.93R
SAN MARCOS     PTSUNNY   77  61  57 N18G28    29.86R
NEW BRAUNFELS  CLOUDY    78  61  55 N24G36    29.82R
RANDOLPH AFB   CLOUDY    82  61  49 N21G26    29.83R
PT SAN ANTONIO NOT AVBL
SAN ANTONIO    CLOUDY    81  59  47 N18G26    29.84R
STINSON FIELD  LGT RAIN  73  66  78 N5        29.82R
*LA GRANGE     PTSUNNY   84  64  51 NW7       29.77S
*GIDDINGS      CLOUDY    77  62  60 N10G18    29.79F
*GONZALES      CLOUDY    84  66  53 N8        29.79S
$$

TXZ163>164-176>182-195>201-210>213-226-227-235-240000-
SOUTHEAST TEXAS

CITY           SKY/WX    TMP DP  RH WIND       PRES   REMARKS
COLLEGE STN    CLOUDY    76  62  62 NW10      29.79F
*BRYAN         CLOUDY    74  62  65 NW13      29.83R
*CALDWELL      NOT AVBL
*CROCKETT      TSTM      64  63  94 CALM      29.84R
*BRENHAM       PTSUNNY   80  63  56 N14G24    29.78F
HUNTSVILLE     MOSUNNY   79  60  52 NW9       29.78S
CONROE         MOSUNNY   83  62  49 CALM      29.76F
HOUSTON BUSH   MOSUNNY   84  61  45 N10       29.75F
HOUSTON HOBBY  PTSUNNY   85  61  44 CALM      29.73F
*HOUSTON SW AP CLOUDY    84  65  51 W3        29.75F
PEARLAND       MOSUNNY   85  65  51 E6        29.76S
HOUSTON HOOKS  MOSUNNY   85  64  49 VRB3      29.75F
ELLINGTON FLD  MOSUNNY   84  63  48 E3        29.77S
SUGAR LAND     MOSUNNY   87  64  46 W3        29.73F
*HOUSTON EXEC  MOSUNNY   84  63  48 N7        29.76F
*CLEVELAND MUN MOSUNNY   82  63  52 CALM      29.77R
*WHARTON       SUNNY     84  60  43 CALM      29.76F
*COLUMBUS      CLOUDY    82  61  48 N3        29.76F
*EAGLE LAKE    CLOUDY    84  67  57 NE6       29.75F
$$

TXZ214>216-236>238-240000-
THE UPPER TEXAS COAST

CITY           SKY/WX    TMP DP  RH WIND       PRES   REMARKS
*ORANGE        PTSUNNY   80  67  65 NE8       29.77S
PORT ARTHUR    MOSUNNY   81  62  52 N10       29.74F
GALVESTON      MOSUNNY   81  70  69 SE12      29.77S
ANGLETON       PTSUNNY   86  71  60 CALM      29.76S HX  91
*BAY CITY      CLOUDY    85  65  50 CALM      29.75F
PALACIOS       MOSUNNY   84  63  49 CALM      29.76F
$$

TXZ229>234-239>247-240000-
TEXAS COASTAL BEND AND RIO GRANDE PLAINS

CITY           SKY/WX    TMP DP  RH WIND       PRES   REMARKS
VICTORIA       PTSUNNY   86  65  49 CALM      29.77S
*BEEVILLE      PTSUNNY   89  67  48 CALM      29.76F HX  92
ROCKPORT       MOSUNNY   83  71  67 SE10      29.74F
*PORT ARANSAS  SUNNY     80  72  77 SE7       29.76F
*PORT LAVACA   MOSUNNY   83  69  62 CALM      29.77S
*INGLESIDE     PTSUNNY   85  72  66 E6        29.75F HAZE    HX  90
CORPUS CHRISTI PTSUNNY   86  71  60 SE6       29.75F HX  91
CORPUS NAS     PTSUNNY   84  75  74 SE13      29.75F HX  92
*ROBSTOWN      PTSUNNY   87  73  62 SE7       29.76F HX  94
ALICE          PTSUNNY   88  69  53 E7        29.74F HX  92
KINGSVILLE NAS PTSUNNY   90  73  57 E10       29.74F HX  98
COTULLA        PTSUNNY   86  67  52 NW10      29.79F
*FAITH RANCH   PTSUNNY   84  70  61 NW8       29.83R
LAREDO         CLOUDY    86  71  60 VRB7      29.79S HX  91
$$

TXZ248>255-240000-
DEEP SOUTH TEXAS

CITY           SKY/WX    TMP DP  RH WIND       PRES   REMARKS
BROWNSVILLE    CLOUDY    88  75  65 CALM      29.73F HX  97
PORT ISABEL    CLOUDY    83  77  82 NE5       29.73F HX  92
*SOUTH PADRE   NOT AVBL
HARLINGEN      CLOUDY    81  76  84 E9        29.74F
*HEBBRONVILLE  CLOUDY    86  67  52 SE5       29.78F
MCALLEN        CLOUDY    85  76  74 E14       29.74F HX  94
*WESLACO       HAZE      83  73  72 SE10G17   29.73F VSB<1/4
FALFURRIAS     MOSUNNY   88  71  58 E7        29.74F HX  94
EDINBURG       CLOUDY    89  72  57 E16       29.73F HX  95
*ZAPATA        CLOUDY    87  70  56 N9        29.75F HX  92
$$

TXZ213>215-236>238-242>244-246-247-251-254-255-240000-
CMAN STATIONS

STATION/POSITION TIME  TEMP    WIND        PRES    WAVE
                       AIR SEA DIR/SP/G            HT/PER
                 (UTC) (F)     (DEG/KT/KT) (MB)    (FT/S)
SABINE PASS      2248   78 81   10/  9/ 13 1008.9
SEA RIM ST PARK  2300   79      40/  6/  9 1007.7
NORTH JETTY/GLS  2248          130/  7/  8 1007.3
EAGLE POINT      2248   79 83  140/  6/  7 1007.4
MORGANS POINT    2248   81 80  130/  4/  6 1007.2
MISSION/ARANSAS  2200   79                 1009.0
PORT O`CONNOR    2248   79     140/  9/ 11 1007.3
PORT ARANSAS     2300   77 81  120/ 10/ 11 1007.4
MALAQUITE BEACH  2248   78 82  100/  9/ 10 1008.3
BAFFIN BAY       2248   78 84              1007.9
PORT ISABEL      2248   83 84  190/  2/  5 1006.7
$$

GMZ080-GMZ150>470-240000-
OFFSHORE BUOY REPORTS

STATION/POSITION TIME  TEMP    WIND        PRES    WAVE
                       AIR SEA DIR/SP/G            HT/PER
                 (UTC) (F)     (DEG/KT/KT) (MB)    (FT/S)
20 E GALVESTON   2250   76 80  130/  4/  6 1008.1    2/ 7
90 E PT ARANSAS  2250   77 81   CALM  /  2 1008.3    3/ 7
35 NE PT MANSFLD 2150   78      80/ 10/ 12 1007.4    4/ 8
200 E PT ISABEL  2250   79 80  300/  6/  8 1008.0    2/ 6
$$




USA.gov is the U.S. government's official web portal to all federal, state and local government web resources and services.